Weather History for KHON - July, 2013

Change the Weather History Date:

Monday, July 15, 2013

  Actual Average Record
Temperature  
Mean Temperature 78 °F 74 °F  
Max Temperature 86 °F 86 °F 109 °F (2006)
Min Temperature 69 °F 62 °F 41 °F (1912)
Degree Days  
Heating Degree Days 0 0  
Month to date heating degree days 0 0  
Since 1 June heating degree days 66 51  
Since 1 July heating degree days 0 0  
Cooling Degree Days 13 9  
Month to date cooling degree days 160 129  
Year to date cooling degree days 333 295  
Since 1 June cooling degree days 295 262  
Growing Degree Days 28 (Base 50)    
Moisture  
Dew Point 67 °F    
Average Humidity 74    
Maximum Humidity 100    
Minimum Humidity 48    
Precipitation  
Precipitation 0.27 in 0.09 in 1.81 in (1943)
Month to date precipitation 1.71 1.32  
Year to date precipitation 15.76 13.23  
Snow  
Snow 0.00 in 0.00 in 0.00 in ()
Month to date snowfall 0.0 0.0  
Since 1 June snowfall 0.0 0.0  
Since 1 July snowfall 0.0 0.0  
Snow Depth 0.00 in    
Sea Level Pressure  
Sea Level Pressure 30.11 in    
Wind  
Wind Speed 9 mph (SSE)    
Max Wind Speed 16 mph    
Max Gust Speed 22 mph    
Visibility 8 miles    
Events Rain    
T = Trace of Precipitation, MM = Missing Value Source: NWS Daily Summary

Daily Weather History Graph

Daily Weather History Graph

Search for Another Location

Airport or City:

Trip Planner

Search our weather history database for the weather conditions in past years. The results will help you decide how hot, cold, wet, or windy it might be!

Date:

Astronomy

Jul. 15, 2013 Rise Set
Actual Time 6:02 AM CDT 9:14 PM CDT
Civil Twilight 5:27 AM CDT 9:49 PM CDT
Nautical Twilight 4:42 AM CDT 10:35 PM CDT
Astronomical Twilight 3:46 AM CDT 11:30 PM CDT
Moon 1:43 PM CDT (7/15) 12:10 AM CDT (7/15)
Length of Visible Light 16h 21m
Length of Day
15h 11m
Waxing Crescent, 45% of the Moon is Illuminated
Jul 15
Waxing Crescent
Jul 15
First Quarter
Jul 22
Full
Jul 29
Last Quarter
Aug 6
New

Hourly Weather History & Observations

Time (CDT) Temp. Heat Index Dew Point Humidity Pressure Visibility Wind Dir Wind Speed Gust Speed Precip Events Conditions
12:12 AM 73.4 °F - 69.8 °F 88% 30.15 in 9.0 mi SSE 4.6 mph - N/A   Overcast
12:55 AM 73.0 °F - 70.0 °F 90% 30.12 in 8.0 mi SSE 5.8 mph - 0.00 in Rain Light Rain
1:24 AM 71.6 °F - 71.6 °F 100% 30.15 in 2.0 mi South 8.1 mph - 0.04 in Rain Rain
1:55 AM 70.0 °F - 69.1 °F 97% 30.14 in 2.0 mi South 6.9 mph - 0.22 in Rain Heavy Rain
2:09 AM 69.8 °F - 66.2 °F 88% 30.15 in 4.0 mi SE 4.6 mph - 0.04 in Rain Light Rain
2:55 AM 71.1 °F - 70.0 °F 96% 30.12 in 6.0 mi ESE 4.6 mph - 0.05 in   Overcast
3:55 AM 71.1 °F - 69.1 °F 93% 30.12 in 7.0 mi SSE 3.5 mph - 0.00 in Rain Light Rain
4:55 AM 70.0 °F - 69.1 °F 97% 30.12 in 8.0 mi SE 4.6 mph - 0.00 in   Mostly Cloudy
5:55 AM 70.0 °F - 68.0 °F 93% 30.12 in 8.0 mi SE 4.6 mph - N/A   Overcast
6:55 AM 70.0 °F - 69.1 °F 97% 30.12 in 5.0 mi SSE 6.9 mph - N/A   Mostly Cloudy
7:55 AM 71.1 °F - 69.1 °F 93% 30.13 in 6.0 mi SSE 8.1 mph - N/A   Overcast
8:55 AM 73.0 °F - 68.0 °F 84% 30.14 in 8.0 mi South 9.2 mph - N/A   Mostly Cloudy
9:55 AM 73.0 °F - 68.0 °F 84% 30.14 in 9.0 mi South 5.8 mph - N/A   Overcast
10:55 AM 79.0 °F - 68.0 °F 69% 30.13 in 10.0 mi South 10.4 mph 18.4 mph 0.00 in   Scattered Clouds
11:55 AM 81.0 °F 83.8 °F 68.0 °F 65% 30.13 in 10.0 mi SSE 10.4 mph - N/A   Clear
12:55 PM 82.9 °F 85.8 °F 68.0 °F 60% 30.12 in 10.0 mi South 12.7 mph 17.3 mph N/A   Clear
1:55 PM 84.0 °F 85.8 °F 64.9 °F 53% 30.12 in 10.0 mi South 9.2 mph 20.7 mph N/A   Clear
2:55 PM 84.0 °F 85.8 °F 64.9 °F 53% 30.10 in 10.0 mi South 11.5 mph 20.7 mph N/A   Mostly Cloudy
3:55 PM 84.9 °F 85.9 °F 63.0 °F 48% 30.08 in 10.0 mi SSW 15.0 mph 21.9 mph N/A   Partly Cloudy
4:55 PM 84.9 °F 85.9 °F 63.0 °F 48% 30.08 in 10.0 mi South 13.8 mph 21.9 mph N/A   Partly Cloudy
5:55 PM 84.0 °F 85.4 °F 64.0 °F 51% 30.07 in 10.0 mi South 13.8 mph 20.7 mph N/A   Partly Cloudy
6:55 PM 82.9 °F 85.0 °F 66.0 °F 56% 30.06 in 10.0 mi SSE 9.2 mph - N/A   Clear
7:55 PM 81.0 °F 82.7 °F 64.9 °F 58% 30.05 in 10.0 mi SSE 10.4 mph - N/A   Clear
8:55 PM 78.1 °F - 66.0 °F 66% 30.05 in 10.0 mi SSE 9.2 mph 16.1 mph N/A   Clear
9:55 PM 77.0 °F - 64.9 °F 66% 30.07 in 10.0 mi SSE 10.4 mph - N/A   Clear
10:55 PM 73.9 °F - 66.0 °F 76% 30.07 in 10.0 mi SSE 6.9 mph - N/A   Clear
11:55 PM 73.0 °F - 66.0 °F 79% 30.07 in 10.0 mi SSE 10.4 mph - N/A   Clear